{"data":{"norad_id":49081,"epoch":"2026-09-20T00:10:53.582304Z","epoch_age_seconds":50420,"freshness":"FRESH","line1":"1 49081U 21075G   26263.00756461 -.00000018  00000+0 -78584-4 0  9991","line2":"2 49081  87.9201 347.0335 0001725 113.0025 247.1288 13.17649983246097","mean_motion":13.17649983,"eccentricity":0.0001725,"inclination_deg":87.9201,"raan_deg":347.0335,"arg_perigee_deg":113.0025,"mean_anomaly_deg":247.1288,"bstar":-7.8584e-5,"rev_number":24609,"period_min":109.28547175491,"perigee_km":1192.4033504826,"apogee_km":1195.0156375231,"semimajor_km":7571.8464940028,"source":"CELESTRAK","updated_at":"2026-09-20T09:00:44.631924Z"}}